Temp
50 49 49 49 49 48 48 48 50 50 50 50 50 49 49 47 47 49 49 46 47 48
50 50 50 50 49 49 49 52 51 51 50 49 49 48 48 47 47 47 47 47 47 48
50 51 51 50 50 49 49 50 51 51 50 49 48 47 47 50 47 47 50 50 46 47
51 52 51 50 50 50 49 50 51 51 50 49 47 45 45 47 48 46 47 48 46 49
51 51 51 50 50 50 50 51 52 52 51 50 48 45 45 48 47 46 46 47 46 46
50 50 50 50 51 51 51 51 51 50 51 50 49 46 45 49 48 47 48 47 46 49
49 50 49 51 51 51 52 50 50 50 50 50 49 47 46 48 47 50 48 47 47 47
51 51 51 51 51 51 52 51 51 50 50 49 49 50 45 46 49 48 47 46 46 48
52 52 52 51 51 51 51 50 50 49 50 48 51 50 51 49 49 48 48 43 44 46
53 53 52 52 51 51 49 49 48 49 49 51 47 49 48 50 48 46 47 44 42 44
54 53 52 52 51 51 49 48 47 48 49 51 48 49 47 48 45 46 49 47 43 41
57 56 52 52 54 50 48 47 47 48 50 48 46 49 47 46 43 46 48 49 47 45
54 56 51 54 50 52 49 48 48 48 48 49 49 48 47 45 43 42 47 48 48 49
53 52 51 54 52 52 50 50 49 47 46 51 48 47 46 45 43 41 43 46 46 47
MSLP
1022.75 1022.86 1022.81 1022.75 1022.68 1022.54 1022.22 1021.85 1021.37 1020.99 1020.76 1020.48 1020.16 1019.84 1019.59 1019.48 1019.10 1018.77 1018.46 1018.21 1017.90 1017.61
1022.60 1022.68 1022.65 1022.56 1022.47 1022.32 1022.05 1021.55 1021.30 1020.91 1020.71 1020.66 1020.33 1020.00 1019.62 1019.45 1019.09 1018.71 1018.36 1018.07 1017.75 1017.47
1022.50 1022.55 1022.47 1022.33 1022.19 1022.05 1021.86 1021.52 1021.26 1021.01 1020.73 1020.63 1020.41 1020.14 1019.74 1019.46 1019.12 1018.67 1018.23 1017.92 1017.71 1017.36
1022.35 1022.33 1022.29 1022.26 1022.16 1021.92 1021.64 1021.37 1021.23 1021.12 1020.91 1020.75 1020.63 1020.33 1019.86 1019.48 1019.14 1018.77 1018.33 1017.90 1017.68 1017.30
1022.32 1022.21 1022.16 1022.12 1022.00 1021.67 1021.58 1021.21 1021.07 1021.06 1021.01 1020.86 1020.72 1020.43 1019.98 1019.55 1019.19 1018.80 1018.42 1018.00 1017.66 1017.37
1022.42 1022.25 1022.07 1022.05 1021.85 1021.63 1021.58 1021.36 1021.13 1021.04 1021.02 1020.98 1020.80 1020.50 1020.08 1019.57 1019.19 1018.76 1018.38 1018.04 1017.75 1017.38
1022.18 1021.95 1021.91 1021.81 1021.75 1021.65 1021.50 1021.39 1021.28 1021.15 1021.03 1020.91 1020.78 1020.51 1020.11 1019.61 1019.10 1018.74 1018.46 1018.09 1017.78 1017.47
1021.60 1021.59 1021.76 1021.71 1021.59 1021.57 1021.47 1021.34 1021.21 1021.15 1021.03 1020.96 1020.76 1020.55 1020.15 1019.67 1019.15 1018.83 1018.60 1018.30 1017.94 1017.60
1021.34 1021.47 1021.52 1021.55 1021.55 1021.44 1021.42 1021.35 1021.16 1021.07 1020.93 1020.82 1020.69 1020.37 1020.01 1019.73 1019.20 1018.91 1018.73 1018.59 1018.21 1017.84
1021.11 1021.30 1021.33 1021.38 1021.40 1021.35 1021.30 1021.24 1021.13 1021.01 1020.80 1020.66 1020.53 1020.35 1020.06 1019.59 1019.37 1019.04 1018.81 1018.67 1018.42 1018.12
1020.84 1021.01 1021.14 1021.25 1021.20 1021.14 1021.11 1021.09 1021.04 1020.82 1020.62 1020.64 1020.60 1020.26 1020.02 1019.67 1019.46 1019.15 1018.84 1018.67 1018.53 1018.34
1020.24 1020.53 1020.89 1020.99 1020.94 1020.92 1020.89 1020.86 1020.83 1020.69 1020.58 1020.55 1020.40 1020.33 1020.22 1019.88 1019.68 1019.32 1018.92 1018.72 1018.62 1018.39
1020.07 1020.38 1020.67 1020.61 1020.65 1020.59 1020.59 1020.65 1020.63 1020.49 1020.32 1020.20 1020.18 1020.17 1020.14 1019.99 1019.84 1019.69 1019.25 1018.82 1018.65 1018.50
1020.05 1020.28 1020.41 1020.48 1020.46 1020.42 1020.37 1020.42 1020.50 1020.40 1020.37 1020.41 1020.48 1020.44 1020.31 1020.08 1019.86 1019.76 1019.56 1019.13 1018.77 1018.48
Wind_Speed
3 1 1 0 1 2 2 3 3 4 4 5 5 5 5 3 4 5 4 6 4 3
2 0 0 0 0 1 3 3 4 4 4 6 6 6 5 4 5 5 4 4 5 3
3 1 1 1 1 1 3 3 5 5 5 5 6 6 6 4 4 6 4 3 5 4
3 0 1 1 1 2 2 3 4 4 4 4 6 6 6 6 5 6 6 6 5 5
2 1 0 2 2 2 3 3 2 3 4 5 6 6 6 6 6 6 6 6 6 5
3 3 3 2 3 3 3 4 4 3 3 4 5 6 6 5 5 6 6 6 6 5
5 5 3 4 3 3 1 3 3 2 2 3 5 6 6 6 5 5 5 6 5 5
6 5 4 4 4 3 1 2 1 1 1 3 4 4 7 6 5 5 6 6 6 5
6 4 5 4 4 3 2 2 2 2 2 2 3 8 11 9 4 4 4 5 6 6
5 5 4 4 3 2 3 2 3 3 3 3 3 8 10 11 4 3 2 4 5 5
6 6 4 3 3 2 2 2 2 3 3 2 4 7 8 7 4 5 2 2 4 4
6 5 3 3 3 2 2 2 2 3 3 3 5 7 8 6 5 5 5 2 2 4
5 4 4 2 2 2 2 2 2 3 4 7 5 4 7 6 3 5 4 4 4 6
6 5 4 2 2 2 2 3 2 3 3 3 2 4 7 8 3 2 2 3 3 3
Wind_Direction
132 143 206 283 266 277 272 278 298 338 356 341 347 346 350 327 324 332 333 343 329 292
164 162 69 73 223 282 299 311 334 338 360 2 358 347 339 343 333 338 326 326 329 306
188 197 196 177 228 330 326 355 10 3 20 15 359 354 346 334 340 343 329 333 343 330
188 140 202 256 305 339 341 1 6 358 18 6 2 352 353 342 339 348 331 332 346 332
171 188 177 239 281 310 348 324 7 12 18 357 356 346 353 342 329 335 334 327 340 343
199 209 247 269 295 322 338 4 12 22 28 1 349 346 336 331 327 321 335 339 340 331
216 219 239 254 284 305 327 7 11 13 32 3 356 337 333 332 334 331 355 356 349 357
223 221 245 257 273 292 261 321 351 7 337 352 344 336 332 325 335 353 2 359 352 352
229 231 239 256 284 286 270 286 345 322 254 298 323 333 344 342 336 12 14 3 349 349
223 243 249 265 288 230 265 274 306 293 269 263 296 323 343 355 348 9 13 4 359 349
220 230 252 249 215 253 270 295 299 293 266 261 298 319 343 2 357 343 350 9 3 6
199 200 204 280 218 259 282 325 294 278 247 220 275 313 344 12 357 343 352 17 11 7
175 155 156 200 241 253 231 252 264 271 224 213 237 288 346 2 358 3 353 6 4 17
152 161 171 187 226 267 293 258 294 254 239 272 329 335 15 8 14 321 345 342 331 327